Location: Huntsville
(41.2590°N, 111.7678°W)
Time: 04:30:44
(UTC+00:00)

N. Korean satellite - Pass Details

Date: 06 December 2021
Orbit: 447 x 491 km, 97.3° (Epoch: 25 January)

Event Time Altitude Azimuth Distance (km) Brightness Sun altitude
Rises 13:16:57 0° 1° (N) 2,460 10.0 -14.9°
Reaches altitude 10° 13:19:08 10° 350° (N) 1,581 8.9 -14.5°
Maximum altitude 13:22:07 29° 288° (WNW) 848 7.2 -14.0°
Drops below altitude 10° 13:25:04 10° 226° (SW) 1,571 8.9 -13.4°
Sets 13:27:15 0° 215° (SW) 2,441 10.0 -13.0°
